Location: ??????????
(54.8537°N, 38.8755°E)
Time: 01:42:37
(UTC+00:00)

Transit 4A - Pass Details

Date: 20 September 2024
Orbit: 865 x 977 km, 66.8° (Epoch: 09 October)

Event Time Altitude Azimuth Distance (km) Brightness Sun altitude
Exits shadow 02:08:24 10° 274° (W) 2,603 9.6 -9.1°
Reaches altitude 10° 02:08:29 10° 274° (W) 2,575 9.6 -9.1°
Maximum altitude 02:13:52 34° 338° (NNW) 1,475 8.9 -8.4°
Drops below altitude 10° 02:19:26 10° 43° (NE) 2,653 11.2 -7.6°
Sets 02:22:17 0° 52° (NE) 3,617 12.3 -7.2°
